User: anonymous   Login
Location: Hoyos del Collado
(40.3594°N, 5.2003°W)
Time: 20:11:45
(UTC+00:00)
Language:

CZ-4C R/B - Orbit

View from above orbital plane
View from above orbital plane
View from above satellite
View from above satellite

Ground track
Ground track

The orbit data is extracted from the following two-line orbital elements,

1 36416U 10009D   24166.52108485  .00000443  00000-0  14881-3 0  9998
2 36416  63.4001 231.8517 0635138 358.9090   1.0524 13.70787984714056
Epoch (UTC): 14 June 2024 12:30:21
Eccentricity: 0.0635138
inclination: 63.4001°
perigee height: 528 km
apogee height: 1465 km
right ascension of ascending node: 231.8517°
argument of perigee: 358.9090°
revolutions per day: 13.70787984
mean anomaly at epoch: 1.0524°
orbit number at epoch: 71405

The dashed part of the orbit path shows where the satellite is in the earth's shadow,  

DLR